www.pogodaiklimat.ru

Погода и климат >> Архив погоды >> Канада >> Rankin Inlet


ПОГОДА в Rankin Inlet

  • Прогноз погоды в Rankin Inlet
  • Монитор погоды в Rankin Inlet
  • Климат города

АРХИВ ПОГОДЫ в Rankin Inlet

Время (UTC), дата Ветер
(напр.,м/с)
 
Видим.   Явления Облачность Т
(С)
Тd
(С)
f
(%)
Тe
(С)
Тes
(С)
Комфортность P
(гПа)
Po
(гПа)
Тmin
(С)
Tmax
(С)
R
(мм)
R24
(мм)
S
(см)
12 11.12 СЗ 13 400 м ледяные иглы {снег, метель} 4/0
[Ac As]
-23.5 -26.2 78 -40 -40 опасность
обморожения
1012.0 1007.5 -28.3 -26.2 0.0 27
15 11.12 СЗ 11 800 м 4/4 1500 м
[]
-24.1 -26.9 78 -40 -40 опасность
обморожения
1012.5 1008.0
18 11.12 СЗ 13 200 м ледяные иглы {снег, метель} 4/4 1500 м
[Sc]
-24.4 -27.3 77 -41 -41 опасность
обморожения
1012.5 1008.0 -28.3 -23.4 0.0 27
21 11.12 С 14 200 м 3/3 1500 м
[]
-25.6 -28.5 77 -43 -43 опасность
обморожения
1012.6 1008.1
00 12.12 С 13 200 м ледяные иглы {метель} 3/3 1500 м
[Sc]
-26.9 -29.9 76 -45 -45 опасность
обморожения
1013.4 1008.9 -27.5 -23.4 0.0 27
03 12.12 С 12 800 м 1/1 1500 м
[]
-27.0 -30.0 76 -44 -44 опасность
обморожения
1013.0 1008.5
06 12.12 С 10 1200 м ледяные иглы {снег, метель} 3/3 1500 м
[Sc]
-25.8 -28.8 76 -41 -41 опасность
обморожения
1013.6 1009.1 -27.5 -23.4 0.0 2
09 12.12 СЗ 9 9000 м 4/4 300 м
[]
-26.8 -29.9 75 -42 -42 опасность
обморожения
1014.2 1009.7
12 12.12 СЗ 6 9000 м ледяные иглы {снег} 1/1 200 м
[Sc]
-28.6 -31.7 75 -41 -41 опасность
обморожения
1012.5 1008.0 -28.6 -23.4 0.0 27
15 12.12 СЗ 6 16 км 8/8 200 м
[]
-29.0 -32.0 75 -42 -42 опасность
обморожения
1011.9 1007.4
18 12.12 СЗ 6 16 км ледяные иглы {снег} 9/9 200 м
[St]
-26.6 -29.7 75 -39 -39 опасность
обморожения
1011.5 1007.0 -29.8 -25.8 0.0 27
21 12.12 С 6 12 км 8/8 100 м
[]
-26.4 -29.5 75 -39 -39 опасность
обморожения
1011.6 1007.1
00 13.12 СЗ 5 16 км ледяные иглы {снег} 9/6 200 м
[Sc Ac trans]
-26.0 -29.1 75 -38 -38 опасность
обморожения
1011.6 1007.1 -29.8 -25.7 0.0 27
03 13.12 СЗ 4 16 км 6/6 100 м
[]
-27.1 -30.0 76 -38 -38 опасность
обморожения
1011.9 1007.4
06 13.12 С 3 24 км ледяные иглы {снег} 1/1 100 м
[Sc]
-28.2 -31.2 75 -38 -38 опасность
обморожения
1012.2 1007.7 -29.8 -25.7 0.0 91
09 13.12 СЗ 4 24 км 6/6 200 м
[]
-29.6 -32.7 74 -41 -41 опасность
обморожения
1012.7 1008.2
12 13.12 С 7 9000 м ледяные иглы {снег} 6/6 100 м
[St]
-26.3 -29.2 76 -40 -40 опасность
обморожения
1013.4 1008.9 -29.7 -25.7 0.0 27
15 13.12 С 8 24 км 4/4 300 м
[]
-27.0 -29.9 76 -41 -41 опасность
обморожения
1014.4 1009.9
18 13.12 С 6 24 км ледяные иглы {снег} 9/9 600 м
[Sc]
-23.9 -26.7 78 -36 -36 опасность
обморожения
1015.1 1010.6 -29.7 -23.9 0.0 27
21 13.12 С 7 24 км 9/9 600 м
[]
-25.2 -28.1 77 -38 -38 опасность
обморожения
1015.7 1011.2
00 14.12 СЗ 7 16 км слабый снег 10/10 300 м
[Sc]
-24.9 -27.6 78 -38 -38 опасность
обморожения
1016.4 1011.9 -29.7 -23.9 0.0 27
03 14.12 С 9 9000 м 10/10 300 м
[]
-25.0 -27.9 77 -40 -40 опасность
обморожения
1015.9 1011.4
06 14.12 С 10 9000 м слабый снег 10/10 300 м
[Sc]
-23.9 -26.6 78 -39 -39 опасность
обморожения
1015.5 1011.0 -29.7 -23.9 0.0 51
09 14.12 С 8 24 км 8/8 200 м
[]
-22.3 -25.0 79 -36 -36 опасность
обморожения
1015.8 1011.3
12 14.12 С 8 24 км {снег} 4/1 200 м
[Frnb Ac trans]
-23.8 -26.6 78 -38 -38 опасность
обморожения
1016.1 1011.6 -25.1 -23.9 0.2 27
15 14.12 С 6 24 км 8/8 1000 м
[]
-24.2 -26.9 78 -36 -36 опасность
обморожения
1016.2 1011.7
18 14.12 С 6 24 км 9/8 1000 м
[Sc Ci fib]
-24.9 -27.6 78 -37 -37 опасность
обморожения
1015.6 1011.1 -25.4 -22.3
21 14.12 С 4 24 км 8/8 1000 м
[]
-25.6 -28.4 77 -36 -36 опасность
обморожения
1015.6 1011.1
00 15.12 С 5 24 км ледяные иглы 4/1 1000 м
[Sc Ci fib]
-26.5 -29.3 77 -38 -38 опасность
обморожения
1015.7 1011.2 -26.9 -23.9 0.0 27
03 15.12 С 6 24 км 4/4 100 м
[]
-25.1 -27.8 78 -37 -37 опасность
обморожения
1015.6 1011.1
06 15.12 С 6 24 км ледяные иглы {снег} 5/5 200 м
[Sc]
-23.9 -26.5 79 -36 -36 опасность
обморожения
1015.5 1011.0 -27.2 -22.3 0.0 101
09 15.12 С 7 16 км 9/9 200 м
[]
-22.4 -24.9 80 -35 -35 опасность
обморожения
1015.1 1010.6
12 15.12 С 6 16 км слабый снег 10/10 200 м
[Sc]
-22.6 -25.1 80 -34 -34 опасность
обморожения
1014.4 1009.9 -27.2 -22.3 0.2 27
15 15.12 С 6 6000 м 10/10 200 м
[]
-23.1 -25.7 79 -35 -35 опасность
обморожения
1013.5 1009.1
18 15.12 СЗ 6 16 км ледяные иглы {снег} 9/6 200 м
[Frnb Ci fib]
-26.5 -29.4 76 -39 -39 опасность
обморожения
1013.2 1008.7 -27.2 -22.1 0.2 27
21 15.12 СЗ 6 16 км 3/3 100 м
[]
-29.0 -32.1 74 -42 -42 опасность
обморожения
1012.5 1008.0
00 16.12 С 6 16 км ледяные иглы {снег} 4/1 100 м
[Frnb Ci fib]
-30.1 -33.3 74 -43 -43 опасность
обморожения
1012.0 1007.5 -30.1 -22.4 0.0 27
03 16.12 СЗ 5 24 км 4/4 100 м
[]
-30.8 -34.1 73 -44 -44 опасность
обморожения
1011.0 1006.5
06 16.12 СЗ 7 24 км ледяные иглы {снег} 5/5 100 м
[Sc]
-27.5 -30.5 75 -41 -41 опасность
обморожения
1010.7 1006.2 -30.9 -22.1 0.0 17
09 16.12 СЗ 7 24 км 4/4 1500 м
[]
-27.1 -30.1 76 -41 -41 опасность
обморожения
1011.0 1006.5
12 16.12 С 5 24 км ледяные иглы {снег} 3/3 1500 м
[Sc]
-28.5 -31.6 75 -40 -40 опасность
обморожения
1010.8 1006.3 -30.9 -22.1 0.0 27
15 16.12 СЗ 4 24 км 4/4 300 м
[]
-29.6 -32.7 74 -41 -41 опасность
обморожения
1011.6 1007.1
18 16.12 С 4 24 км ледяные иглы {снег} 5/1 300 м
[Sc Ac trans Ci fib]
-29.8 -33.0 74 -41 -41 опасность
обморожения
1011.6 1007.1 -30.9 -26.0 0.0 27
21 16.12 СЗ 2 24 км 6/6 50 м
[]
-30.1 -33.3 74 -38 -38 опасность
обморожения
1011.9 1007.4
00 17.12 СЗ 3 24 км ледяные иглы {снег} 3/1 1500 м
[Sc Ci fib]
-30.4 -33.6 73 -39 -39 опасность
обморожения
1011.9 1007.4 -30.7 -28.4 0.0 27
03 17.12 З 3 24 км 3/3 1000 м
[]
-30.6 -33.9 73 -40 -40 опасность
обморожения
1011.1 1006.6
06 17.12 З 1 24 км ледяные иглы {снег} 1/1 1000 м
[Sc]
-29.7 -32.9 74 -34 -34 опасность
обморожения
1010.1 1005.6 -30.7 -26.0 0.0 91
09 17.12 С 1 24 км ясно -29.6 -32.8 74 -34 -34 опасность
обморожения
1009.0 1004.5
12 17.12 СВ 2 24 км ледяные иглы {снег} 3/0
[Ac As]
-30.3 -33.5 73 -37 -37 опасность
обморожения
1007.5 1003.0 -30.7 -26.0 0.0 27
15 17.12 С 2 24 км 10/10 100 м
[]
-26.9 -29.9 76 -33 -33 опасность
обморожения
1005.6 1001.1
18 17.12 С 2 24 км {снег} 10/10 100 м
[St]
-23.7 -26.4 78 -30 -30 1003.6 999.2 -30.7 -23.3 0.0 27
21 17.12 С 2 16 км 9/9 100 м
[]
-21.4 -23.9 80 -28 -28 1002.0 997.6
00 18.12 СВ 3 16 км слабый снег 10/10 300 м
[Sc]
-19.8 -22.1 82 -27 -27 1000.7 996.3 -30.6 -19.8 0.0 27
03 18.12 В 3 12 км 10/10 300 м
[]
-18.4 -20.5 83 -26 -26 999.2 994.8
06 18.12 ЮВ 4 16 км слабый снег 10/10 300 м
[Sc]
-17.4 -19.4 84 -25 -25 997.6 993.3 -30.6 -17.3 0.2 27

 

Местоположение метеостанции Rankin Inlet (Канада): широта 62.82 долгота -92.11 высота над уровнем моря 31 м.

В архиве по умолчанию представлена погода в Rankin Inlet за последнюю неделю. Архивные данные за месяц целиком и за предыдущие месяцы, начиная с января 2011 года, Вы можете получить, выбрав интересующий диапазон дат из раскрывающегося списка и нажав кнопку "Ввод!".

Внимание! Время в таблицах - всемирное. Для получения местного времени необходимо прибавить поправку, которая в Rankin Inlet равна -6 ч.

Смотрите также архив погоды в соседних городах и на ближайших метеорологических станциях:

Погода в Arviat Climate (Канада) (217 км)
Погода в Arviat (Канада) (217 км)
Погода в Arviat Airport (Канада) (218 км)
Погода в Baker Lake Climate (Канада) (255 км)
Погода в Baker Lake Airport (Канада) (256 км)
Погода в Wager Bay (Канада) (364 км)
Погода в Back River MAPS (Канада) (419 км)
Погода в Coral Harbour Arpt (Канада) (460 км)
Погода в Churchill Climate (Канада) (468 км)
Погода в Dubawnt Lake (Канада) (486 км)

Пояснения к столбцам:

Ветер - указаны скорость ветра в м/с - средняя за 10 мин, порывы в срок и между сроками (в фигурных скобках) и направление, откуда дует ветер: С - северный, СВ - северо-восточный, В - восточный, ЮВ - юго-восточный, Ю - южный, ЮЗ - юго-западный, З - западный, СЗ - северо-западный.
Видимость - горизонтальная дальность видимости в метрах или километрах. При видимости от 1 до 10 км при отсутствии осадков обычно наблюдается дымка, при ухудшении видимости до 1 км и менее - туман. В сухую погоду видимость может ухудшаться дымом, пылью или мглою.
Явления - указаны атмосферные явления, наблюдавшиеся в срок или в последний час перед сроком; фигурными скобками обозначены явления, наблюдавшиеся между сроками (за 1-3 часа до срока); квадратными скобками обозначены град или гололедные отложения с указанием их диаметра в мм.
Облачность - указаны через наклонную черту общая и нижняя облачность в баллах и высота нижней границы облаков в метрах; квадратными скобками обозначены формы облаков: Ci - перистые, Cs - перисто-слоистые, Cc - перисто-кучевые, Ac - высококучевые, As - высокослоистые, Sc - слоисто-кучевые, Ns - слоисто-дождевые, Cu - кучевые, Cb - кучево-дождевые. Подробнее классификацию облаков см. в Атласе облаков (PDF).
T - Температура воздуха - температура, измеренная на высоте 2 м над землей.
Td - Температура точки росы - температура, при понижении до которой содержащийся в воздухе водяной пар достигнет насыщения.
f - Относительная влажность воздуха - влажноcть воздуха, измеренная на высоте 2 м над землей.
Te - Эффективная температура - температура, которую ощущает одетый по сезону человек в тени. Характеристика душности погоды. При расчете учитывается влияние влажности воздуха и скорости ветра на теплоощущения человека.
Tes - Эффективная температура на солнце - температура, которую ощущает человек, с поправкой на солнечный нагрев. Характеристика знойности погоды. Зависит от высоты солнца над горизонтом, облачности и скорости ветра. Ночью, в пасмурную погоду, а также при ветре 12 м/с и более поправка равна нулю.
P - Атмосферное давление - приведенное к уровню моря атмосферное давление.
Po - Атмосферное давление - измеренное на уровне метеостанции атмосферное давление.
Tmin - Минимальная температура - минимум температуры воздуха на высоте 2 м над землей.
Tmax - Максимальная температура - максимум температуры воздуха на высоте 2 м над землей.
R - Количество осадков - Количество выпавших осадков за период времени, мм. При наведении курсора мыши на число - период времени, за который выпало указанное количество осадков.
R24 - Количество осадков - Количество выпавших осадков за 24 часа, мм.
S - Снежный покров - Высота снежного покрова, см. При наведении курсора мыши на число - состояние снежного покрова и степень покрытия местности в баллах.